User: anonymous
Location: Del Oro Observatory
(38.3044°N, 104.8119°W)
Time: 22:49:33
(UTC-06:00)
Language:

Cosmos 1602 Rocket - Orbit

View from above orbital plane
View from above orbital plane
View from above satellite
View from above satellite

Ground track
Ground track

The orbit data is extracted from the following two-line orbital elements,

1 15332U 84105B   14231.12445130  .00000232  00000-0  25659-4 0  7247
2 15332 082.5323 073.4461 0021984 172.3050 327.2827 14.82756077613464
Epoch (UTC): 19 August 2014 02:59:12
Eccentricity: 0.0021984
inclination: 82.5323°
perigee height: 605 km
apogee height: 636 km
right ascension of ascending node: 73.4461°
argument of perigee: 172.3050°
revolutions per day: 14.82756077
mean anomaly at epoch: 327.2827°
orbit number at epoch: 61346

The dashed part of the orbit path shows where the satellite is in the earth's shadow,  

DLR